THY5AX LTBJ-URSS

Flight info

Callsign THY5AX
Flight time N/A
Altitude 35000
Route KULA1T KULAR UT54 KFK UR32 HALIL UW77 BAG UT61 SIN UW96 ODIRA/K0845F350 G487 DIRUN DIRUN1G
Aircraft A321/M-SDE3FGHIRWY/LB1

Departure

Time 2026-05-05 18:58
Airport Adnan Menderes International Airport (LTBJ)

Arrival

Time N/A
Airport Sochi International Airport (URSS)
Time Latitude Longitude Altitude Speed Heading
2026-05-05 18:31 38.29198 27.15085 409 ft 0 kts 257°
2026-05-05 18:43 38.29199 27.15087 408 ft 1 kts 257°
2026-05-05 18:43 38.29202 27.15106 408 ft 2 kts 257°
2026-05-05 18:43 38.29205 27.15124 407 ft 2 kts 257°
2026-05-05 18:44 38.29208 27.15140 407 ft 0 kts 257°
2026-05-05 18:44 38.29213 27.15154 407 ft 2 kts 226°
2026-05-05 18:44 38.29226 27.15164 406 ft 2 kts 187°
2026-05-05 18:44 38.29234 27.15164 405 ft 1 kts 166°
2026-05-05 18:45 38.29241 27.15161 405 ft 0 kts 165°
2026-05-05 18:49 38.29237 27.15163 405 ft 3 kts 166°
2026-05-05 18:50 38.29208 27.15171 407 ft 6 kts 167°
2026-05-05 18:50 38.29123 27.15196 410 ft 13 kts 166°
2026-05-05 18:50 38.29047 27.15219 412 ft 6 kts 167°
2026-05-05 18:50 38.29021 27.15229 412 ft 2 kts 146°
2026-05-05 18:51 38.29010 27.15253 412 ft 2 kts 101°
2026-05-05 18:51 38.29013 27.15281 411 ft 1 kts 102°
2026-05-05 18:51 38.28996 27.15301 410 ft 4 kts 156°
2026-05-05 18:51 38.28955 27.15314 410 ft 7 kts 166°
2026-05-05 18:52 38.28896 27.15331 409 ft 9 kts 166°
2026-05-05 18:52 38.28824 27.15353 408 ft 11 kts 167°
2026-05-05 18:52 38.28743 27.15377 409 ft 12 kts 166°
2026-05-05 18:52 38.28659 27.15403 409 ft 12 kts 167°
2026-05-05 18:53 38.28568 27.15430 408 ft 14 kts 166°
2026-05-05 18:53 38.28464 27.15461 405 ft 16 kts 166°
2026-05-05 18:53 38.28340 27.15498 401 ft 19 kts 166°
2026-05-05 18:53 38.28206 27.15539 398 ft 20 kts 166°
2026-05-05 18:54 38.28060 27.15583 392 ft 22 kts 166°
2026-05-05 18:54 38.27946 27.15617 387 ft 16 kts 167°
2026-05-05 18:54 38.27853 27.15645 382 ft 13 kts 166°
2026-05-05 18:54 38.27791 27.15664 380 ft 5 kts 167°
2026-05-05 18:55 38.27762 27.15681 379 ft 5 kts 130°
2026-05-05 18:55 38.27755 27.15711 379 ft 3 kts 90°
2026-05-05 18:55 38.27761 27.15745 379 ft 4 kts 77°
2026-05-05 18:55 38.27772 27.15810 380 ft 8 kts 77°
2026-05-05 18:56 38.27783 27.15866 381 ft 3 kts 76°
2026-05-05 18:56 38.27792 27.15887 381 ft 2 kts 39°
2026-05-05 18:56 38.27811 27.15899 381 ft 3 kts 18°
2026-05-05 18:56 38.27837 27.15901 381 ft 3 kts 352°
2026-05-05 18:57 38.27854 27.15896 381 ft 0 kts 347°
2026-05-05 18:57 38.27864 27.15893 381 ft 9 kts 347°
2026-05-05 18:57 38.28153 27.15807 391 ft 76 kts 346°
2026-05-05 18:57 38.28876 27.15590 404 ft 134 kts 347°
2026-05-05 18:58 38.29922 27.15284 612 ft 164 kts 347°
2026-05-05 18:58 38.30985 27.15002 1370 ft 152 kts 347°
2026-05-05 18:58 38.32006 27.14673 1915 ft 155 kts 345°
2026-05-05 18:58 38.33050 27.14339 2406 ft 159 kts 348°
2026-05-05 18:59 38.34177 27.14043 2725 ft 174 kts 349°
2026-05-05 18:59 38.35416 27.13721 3060 ft 190 kts 349°
2026-05-05 18:59 38.36769 27.13358 3390 ft 208 kts 349°
2026-05-05 18:59 38.38250 27.13170 3745 ft 225 kts
2026-05-05 19:00 38.39745 27.13949 4172 ft 242 kts 36°
2026-05-05 19:00 38.40875 27.15591 4710 ft 256 kts 52°
2026-05-05 19:00 38.41906 27.17477 5472 ft 259 kts 52°
2026-05-05 19:00 38.42933 27.19326 6233 ft 261 kts 51°
2026-05-05 19:01 38.43943 27.21262 6988 ft 266 kts 57°
2026-05-05 19:01 38.44682 27.23432 7724 ft 272 kts 68°
2026-05-05 19:01 38.45169 27.25777 8465 ft 275 kts 71°
2026-05-05 19:01 38.45600 27.28146 9157 ft 279 kts 71°
2026-05-05 19:02 38.46034 27.30555 9838 ft 281 kts 71°
2026-05-05 19:02 38.46474 27.32978 10448 ft 286 kts 71°
2026-05-05 19:02 38.46914 27.35543 10770 ft 304 kts 74°
2026-05-05 19:02 38.47243 27.38270 11054 ft 321 kts 77°
2026-05-05 19:03 38.47548 27.41145 11332 ft 336 kts 77°
2026-05-05 19:03 38.47861 27.44169 11601 ft 351 kts 77°
2026-05-05 19:03 38.48189 27.47324 11892 ft 365 kts 77°
2026-05-05 19:03 38.48528 27.50576 12376 ft 372 kts 77°
2026-05-05 19:04 38.48945 27.53803 12968 ft 374 kts 75°
2026-05-05 19:04 38.49398 27.57060 13556 ft 377 kts 75°
2026-05-05 19:04 38.49861 27.60348 14110 ft 380 kts 75°
2026-05-05 19:04 38.50332 27.63694 14636 ft 384 kts 75°
2026-05-05 19:05 38.50805 27.67067 15164 ft 388 kts 75°
2026-05-05 19:05 38.51281 27.70487 15661 ft 392 kts 75°
2026-05-05 19:05 38.51758 27.73919 16160 ft 396 kts 75°
2026-05-05 19:05 38.52235 27.77368 16659 ft 399 kts 75°
2026-05-05 19:06 38.52702 27.80872 17153 ft 403 kts 77°
2026-05-05 19:06 38.53033 27.84456 17643 ft 408 kts 80°
2026-05-05 19:06 38.53288 27.88040 18119 ft 411 kts 81°
2026-05-05 19:06 38.53537 27.91706 18592 ft 414 kts 81°
2026-05-05 19:07 38.53780 27.95339 19145 ft 414 kts 81°
2026-05-05 19:07 38.54025 27.99018 19709 ft 415 kts 81°
2026-05-05 19:07 38.54272 28.02663 20154 ft 418 kts 81°
2026-05-05 19:07 38.54521 28.06363 20607 ft 420 kts 81°
2026-05-05 19:08 38.54771 28.10096 21025 ft 423 kts 81°
2026-05-05 19:08 38.55021 28.13852 21435 ft 426 kts 81°
2026-05-05 19:08 38.55273 28.17625 21833 ft 429 kts 81°
2026-05-05 19:08 38.55524 28.21395 22249 ft 430 kts 81°
2026-05-05 19:09 38.55773 28.25175 22641 ft 433 kts 81°
2026-05-05 19:09 38.56024 28.29008 23018 ft 435 kts 81°
2026-05-05 19:09 38.56278 28.32889 23406 ft 438 kts 81°
2026-05-05 19:09 38.56529 28.36754 23773 ft 440 kts 81°
2026-05-05 19:10 38.56777 28.40625 24118 ft 442 kts 81°
2026-05-05 19:10 38.57030 28.44575 24450 ft 445 kts 81°
2026-05-05 19:10 38.57280 28.48491 24747 ft 448 kts 81°
2026-05-05 19:10 38.57532 28.52448 25062 ft 450 kts 81°
2026-05-05 19:11 38.57783 28.56428 25390 ft 452 kts 81°
2026-05-05 19:11 38.58034 28.60409 25694 ft 454 kts 81°
2026-05-05 19:11 38.58337 28.64465 25986 ft 455 kts 78°
2026-05-05 19:11 38.58738 28.68502 26265 ft 457 kts 78°
2026-05-05 19:12 38.59156 28.72567 26526 ft 460 kts 78°
2026-05-05 19:12 38.59573 28.76600 26804 ft 462 kts 78°
2026-05-05 19:12 38.59989 28.80648 27086 ft 463 kts 78°
2026-05-05 19:12 38.60405 28.84730 27349 ft 465 kts 78°
2026-05-05 19:13 38.60823 28.88845 27604 ft 467 kts 78°
2026-05-05 19:13 38.61235 28.92944 27942 ft 467 kts 79°
2026-05-05 19:13 38.61647 28.97047 28327 ft 466 kts 79°
2026-05-05 19:13 38.62053 29.01123 28695 ft 465 kts 78°
2026-05-05 19:14 38.62459 29.05219 29046 ft 464 kts 79°
2026-05-05 19:14 38.62865 29.09306 29387 ft 463 kts 78°
2026-05-05 19:14 38.63261 29.13319 29719 ft 463 kts 78°
2026-05-05 19:14 38.63667 29.17420 30028 ft 463 kts 78°
2026-05-05 19:15 38.64066 29.21477 30336 ft 462 kts 78°
2026-05-05 19:15 38.64465 29.25546 30621 ft 462 kts 78°
2026-05-05 19:15 38.64861 29.29602 30902 ft 462 kts 79°
2026-05-05 19:15 38.65257 29.33644 31189 ft 462 kts 79°
2026-05-05 19:16 38.65651 29.37723 31492 ft 461 kts 79°
2026-05-05 19:16 38.66040 29.41766 31769 ft 460 kts 79°
2026-05-05 19:16 38.66428 29.45802 32027 ft 460 kts 78°
2026-05-05 19:16 38.66898 29.49843 32272 ft 459 kts 77°
2026-05-05 19:17 38.67409 29.53874 32520 ft 459 kts 76°
2026-05-05 19:17 38.67925 29.57886 32766 ft 458 kts 76°
2026-05-05 19:17 38.68436 29.61882 33028 ft 457 kts 76°
2026-05-05 19:17 38.68944 29.65857 33279 ft 457 kts 77°
2026-05-05 19:18 38.69457 29.69893 33485 ft 457 kts 77°
2026-05-05 19:18 38.69968 29.73942 33655 ft 458 kts 77°
2026-05-05 19:18 38.70474 29.77961 33816 ft 460 kts 77°
2026-05-05 19:18 38.70981 29.81985 33976 ft 461 kts 77°
2026-05-05 19:19 38.71484 29.86020 34144 ft 462 kts 77°
2026-05-05 19:19 38.71991 29.90085 34295 ft 462 kts 77°
2026-05-05 19:19 38.72496 29.94143 34446 ft 463 kts 77°
2026-05-05 19:19 38.72998 29.98203 34592 ft 463 kts 77°
2026-05-05 19:20 38.73492 30.02110 34738 ft 464 kts 77°
2026-05-05 19:20 38.74032 30.06184 34872 ft 464 kts 76°
2026-05-05 19:20 38.74574 30.10224 35008 ft 465 kts 76°
2026-05-05 19:20 38.75119 30.14287 35034 ft 466 kts 76°
2026-05-05 19:21 38.76203 30.22451 35043 ft 466 kts 77°
2026-05-05 19:21 38.77277 30.30614 35052 ft 466 kts 77°
2026-05-05 19:22 38.78342 30.38761 35057 ft 466 kts 77°
2026-05-05 19:22 38.79404 30.46911 35052 ft 465 kts 76°
2026-05-05 19:23 38.80876 30.54947 35043 ft 462 kts 69°
2026-05-05 19:23 38.83030 30.62645 35046 ft 459 kts 63°
2026-05-05 19:24 38.85539 30.70170 35053 ft 459 kts 63°
2026-05-05 19:24 38.88044 30.77655 35046 ft 458 kts 63°
2026-05-05 19:25 38.90537 30.85156 35042 ft 458 kts 64°
2026-05-05 19:25 38.93015 30.92651 35033 ft 457 kts 63°
2026-05-05 19:26 38.95493 31.00168 35036 ft 457 kts 64°
2026-05-05 19:26 38.97960 31.07669 35024 ft 457 kts 64°
2026-05-05 19:27 39.00424 31.15182 35026 ft 458 kts 64°
2026-05-05 19:27 39.02888 31.22718 35031 ft 459 kts 63°